ROMMA est une association bénévole à but non lucratif. Votre soutien est indispensable : ADHERER à ROMMA ou FAIRE un DON

Chambon - (38, Isère)

Oisans (2460 m)   Longitude: 06° 10' 42" E   Latitude: 45° 01' 32" N Station partenaire n°803
 

Détail journalier du     <<     >>

Température Humidité Vent Dir Rafale Dir. rafale Neige 1 Neige 2
Heure (°C) (%) (km/h) (km/h) (cm) (cm)
01:00 -5.2982SO14SO194240
02:00 0.001SO14SO00
03:00 -6.0988SO17SO193240
04:00 -5.79810OSO18OSO192240
05:00 -4.9988SSO19SSO193240
06:00 0.003SSO19SSO00
07:00 -4.8983SE16SE192240
08:00 -4.0986OSO14OSO191240
09:00 -2.9967OSO12OSO191240
10:00 0.004O11O00
11:00 -2.9969OSO20OSO191240
12:00 -0.2975SSE20OSO191240
13:00 -0.1963SSE15SSE190239
14:00 0.002SSE15SSE00
15:00 -1.79615SSO33SSO188237
16:00 -1.99619SSO36SSO186236
17:00 -2.09717SSO36SSO186235
18:00 0.006OSO30OSO00
19:00 -3.29921SO40SO185234
20:00 -3.39916SO31SO186235
21:00 -4.09921SO50OSO187236
22:00 0.0013OSO50OSO00
23:00 -4.59919O35O186237
minuit -5.19914OSO32O186237

Graphique du 27-04-2019

 

Serveur OMMA